sat.trackr.live / text

‹ back to catalog

STARLINK-5101

NORAD 54822 · 2022-177C

PAYLOAD ACTIVE UNKNOWN

§ Identity

Operator
Country
US
Launch date
2022-12-28
Launch site
AFETR
Launch vehicle
Mass (kg)
RCS (m²)

Purposes: comms

External: N2YO · Heavens-Above · Gunter

§ Orbital elements

Epoch: 2026-05-25T03:17:22.498080Z

Period
94.27 min
Inclination
43.0039°
Eccentricity
0.0000965
Mean motion
15.27578124 rev/d
Perigee alt
482.4 km
Apogee alt
483.7 km
Semi-major
6,861.2 km
B*
1.9582e-5
RAAN
64.4416°
Arg perigee
261.7733°
Mean anomaly
98.3009°
Rev number
18,861

§ Raw data

STARLINK-51011 54822U 22177C   26145.13706595  .00000277  00000+0  19582-4 0  99982 54822  43.0039  64.4416 0000965 261.7733  98.3009 15.27578124188611

JSON: /api/v1/satellites/54822 · /tle

For live sub-satellite position, see the globe view (requires WebGL).

§ Visibility from observer

Set your observer location to see the next 7 days of passes ≥ 10°. The values pass through the URL so the page stays shareable.

No JS? Fill the form by hand. The geolocation button needs JavaScript.